Location: *
(40.4270°N, 9.4940°E)
Time: 04:19:22
(UTC+02:00)

Okean 2 - Visible Passes

Search period start: 27 May 2016 00:00
Search period end: 06 June 2016 00:00
Orbit: 563 x 579 km, 82.5° (Epoch: 26 May)

Date Brightness Start Highest point End Pass type
(mag) Time Alt. Az. Time Alt. Az. Time Alt. Az.
27 May 6.2 22:29:32 10° WSW 22:32:23 18° WNW 22:35:16 10° NNW visible
28 May 6.4 22:32:40 10° WSW 22:34:51 14° WNW 22:37:04 10° NW visible
29 May 6.7 22:36:24 10° W 22:37:21 11° WNW 22:38:19 10° NW visible
